GW5329 Weather Reports


Display with metric or nautical units.
time (UTC)temp
F
wind
direction
speed
MPH
gust
MPH
rain 1hr
in
rain 24hr
in
rain mn
in
humidity
%
barometer
mb
20260506171440 67 281 5.0 13.0 0.00 0.00 0.00 65 845.1
20260506170939 68 223 4.0 11.0 0.00 0.00 0.00 64 819.9
20260506170438 68 221 5.0 12.0 0.00 0.00 0.00 63 816.8
20260506165937 68 208 4.0 12.0 0.00 0.00 0.00 62 821.1
20260506164920 69 224 2.0 14.0 0.00 0.00 0.00 62 827.5
20260506164419 69 222 2.0 12.0 0.00 0.00 0.00 62 815.3
20260506163918 68 208 4.0 12.0 0.00 0.00 0.00 61 784.5
20260506163417 68 207 5.0 12.0 0.00 0.00 0.00 61 785.6
20260506162916 69 188 5.0 12.0 0.00 0.00 0.00 61 798.9
20260506161859 69 201 6.0 14.0 0.00 0.00 0.00 60 786.3
20260506160326 70 213 2.0 12.0 0.00 0.00 0.00 60 792.5
20260506155309 70 194 5.0 18.0 0.00 0.00 0.00 59 802.0
20260506154808 70 221 3.0 12.0 0.00 0.00 0.00 60 858.0
20260506154307 70 245 2.0 14.0 0.00 0.00 0.00 60 808.6
20260506153806 70 190 5.0 14.0 0.00 0.00 0.00 58 762.1
20260506153305 70 207 0.0 14.0 0.00 0.00 0.00 59 778.8
20260506152804 70 224 3.0 14.0 0.00 0.00 0.00 60 792.8
20260506151747 70 228 1.0 11.0 0.00 0.00 0.00 61 818.8
20260506151246 69 230 3.0 11.0 0.00 0.00 0.00 62 868.5
20260506150745 69 220 3.0 11.0 0.00 0.00 0.00 62 783.3
20260506150244 69 193 3.0 11.0 0.00 0.00 0.00 62 792.4
20260506145743 69 236 3.0 11.0 0.00 0.00 0.00 62 823.8
20260506145242 69 225 3.0 11.0 0.00 0.00 0.00 63 809.8
20260506144741 68 232 3.0 11.0 0.00 0.00 0.00 64 796.3
20260506144240 68 198 3.0 11.0 0.00 0.00 0.00 64 765.9
20260506143223 67 145 3.0 15.0 0.00 0.00 0.00 66 741.4
20260506142722 67 208 2.0 15.0 0.00 0.00 0.00 67 830.5
20260506142221 67 232 4.0 11.0 0.00 0.00 0.00 67 867.3
20260506141720 67 271 0.0 11.0 0.00 0.00 0.00 67 907.9
20260506141219 67 290 0.0 11.0 0.00 0.00 0.00 67 833.2
20260506140718 67 167 1.0 11.0 0.00 0.00 0.00 68 728.3
20260506140217 66 202 3.0 11.0 0.00 0.00 0.00 69 758.6
20260506135716 66 186 3.0 11.0 0.00 0.00 0.00 69 794.4
20260506135215 66 260 2.0 11.0 0.00 0.00 0.00 68 837.9
20260506134158 66 210 3.0 12.0 0.00 0.00 0.00 70 782.1
20260506133141 65 220 1.0 11.0 0.00 0.00 0.00 72 804.2
20260506132640 65 245 3.0 12.0 0.00 0.00 0.00 73 790.2
20260506132139 64 215 4.0 12.0 0.00 0.00 0.00 73 775.5
20260506131122 64 196 3.0 11.0 0.00 0.00 0.00 75 766.1
20260506130621 63 213 4.0 13.0 0.00 0.00 0.00 75 768.3
20260506130120 63 187 1.0 13.0 0.00 0.00 0.00 77 808.7
20260506125619 63 240 2.0 13.0 0.00 0.00 0.00 78 825.0
20260506125119 62 201 3.0 13.0 0.00 0.00 0.00 78 787.3
20260506124617 62 219 1.0 13.0 0.00 0.00 0.00 80 789.9
20260506124116 61 209 1.0 13.0 0.00 0.00 0.00 80 789.7
20260506123615 61 202 2.0 13.0 0.00 0.00 0.00 80 788.7
20260506122044 61 256 2.0 13.0 0.00 0.00 0.00 80 820.5
20260506121543 61 217 0.0 13.0 0.00 0.00 0.00 81 776.9
20260506121042 60 205 1.0 13.0 0.00 0.00 0.00 81 759.5
20260506120541 60 210 3.0 13.0 0.00 0.00 0.00 81 759.1
20260506120040 60 172 2.0 13.0 0.00 0.00 0.00 81 728.0
20260506115540 60 208 2.0 13.0 0.00 0.00 0.00 81 757.5
20260506114523 60 213 1.0 13.0 0.00 0.00 0.00 83 703.1
20260506114023 59 150 0.0 13.0 0.00 0.00 0.00 84 673.6
20260506113522 59 167 2.0 13.0 0.00 0.00 0.00 84 742.2
20260506113021 59 205 2.0 13.0 0.00 0.00 0.00 85 767.4
20260506112520 58 205 1.0 13.0 0.00 0.00 0.00 86 783.8
20260506111504 58 208 1.0 13.0 0.00 0.00 0.00 85 800.3
20260506111004 58 214 1.0 13.0 0.00 0.00 0.00 85 786.9
20260506105947 58 230 2.0 13.0 0.00 0.00 0.00 86 799.2
20260506104930 57 243 1.0 13.0 0.00 0.00 0.00 86 851.4
20260506104429 57 228 1.0 13.0 0.00 0.00 0.00 86 845.5
20260506103929 57 243 0.0 13.0 0.00 0.00 0.00 86 860.5
20260506103428 57 245 1.0 13.0 0.00 0.00 0.00 86 853.9
20260506102927 57 227 2.0 13.0 0.00 0.00 0.00 86 872.3
20260506102426 57 272 1.0 13.0 0.00 0.00 0.00 86 866.9
20260506101925 57 225 2.0 13.0 0.00 0.00 0.00 86 805.8
20260506101424 57 216 3.0 13.0 0.00 0.00 0.00 86 780.2
20260506100407 57 202 1.0 13.0 0.00 0.00 0.00 86 776.5
20260506095906 57 212 1.0 13.0 0.00 0.00 0.00 86 782.7
20260506095405 57 207 0.0 13.0 0.00 0.00 0.00 85 774.8
20260506094904 57 208 2.0 13.0 0.00 0.00 0.00 85 764.4
20260506094403 57 224 1.0 13.0 0.00 0.00 0.00 85 773.9
20260506093902 57 183 2.0 13.0 0.00 0.00 0.00 85 727.5
20260506093401 57 173 1.0 13.0 0.00 0.00 0.00 85 759.8
20260506092900 57 244 0.0 13.0 0.00 0.00 0.00 84 848.7
20260506092359 57 224 3.0 13.0 0.00 0.00 0.00 84 804.9
20260506091858 58 201 3.0 13.0 0.00 0.00 0.00 84 781.0
20260506091357 58 214 2.0 13.0 0.00 0.00 0.00 84 788.8
20260506090857 58 213 2.0 13.0 0.00 0.00 0.00 84 776.7
20260506090356 58 210 1.0 11.0 0.00 0.00 0.00 83 803.0
20260506085856 58 220 3.0 11.0 0.00 0.00 0.00 83 827.7
20260506085355 58 225 1.0 11.0 0.00 0.00 0.00 83 824.1
20260506084854 58 232 1.0 11.0 0.00 0.00 0.00 82 810.5
20260506084353 58 206 1.0 11.0 0.00 0.00 0.00 82 783.9
20260506083852 58 203 2.0 11.0 0.00 0.00 0.00 82 777.9
20260506083351 58 229 1.0 11.0 0.00 0.00 0.00 82 803.3
20260506082850 58 222 3.0 11.0 0.00 0.00 0.00 82 788.5
20260506082349 58 207 2.0 11.0 0.00 0.00 0.00 82 779.9
20260506081848 58 205 1.0 11.0 0.00 0.00 0.00 82 769.1
20260506081347 58 182 2.0 11.0 0.00 0.00 0.00 81 776.5
20260506080846 58 218 1.0 11.0 0.00 0.00 0.00 81 796.2
20260506080345 58 214 2.0 11.0 0.00 0.00 0.00 81 789.7
20260506073326 59 201 2.0 11.0 0.00 0.00 0.00 80 794.7
20260506072825 59 251 2.0 11.0 0.00 0.00 0.00 80 814.7
20260506072324 59 205 1.0 11.0 0.00 0.00 0.00 80 789.9
20260506071307 59 222 0.0 11.0 0.00 0.00 0.00 79 768.2
20260506070806 59 212 3.0 11.0 0.00 0.00 0.00 79 789.1
20260506070305 59 217 3.0 11.0 0.00 0.00 0.00 79 800.9
20260506062212 60 204 3.0 11.0 0.00 0.00 0.00 77 769.1
20260506061711 60 190 1.0 11.0 0.00 0.00 0.00 77 773.1
20260506061210 60 217 2.0 11.0 0.00 0.00 0.00 76 792.3
20260506060709 60 214 3.0 11.0 0.00 0.00 0.00 76 781.7
20260506060208 60 224 1.0 11.0 0.00 0.00 0.00 76 790.2
20260506051158 62 222 3.0 12.0 0.00 0.00 0.00 72 807.8
20260506050141 62 212 2.0 11.0 0.00 0.00 0.00 71 801.2
20260506044638 62 213 3.0 11.0 0.00 0.00 0.00 70 778.3
20260506044137 62 215 3.0 11.0 0.00 0.00 0.00 69 771.2
20260506043636 62 187 1.0 11.0 0.00 0.00 0.00 69 755.0
20260506043135 62 203 1.0 11.0 0.00 0.00 0.00 69 755.7
20260506042634 62 191 2.0 11.0 0.00 0.00 0.00 68 769.7
20260506042133 62 223 2.0 11.0 0.00 0.00 0.00 68 794.8
20260506041116 62 239 2.0 12.0 0.00 0.00 0.00 67 803.9
20260506040615 62 214 2.0 12.0 0.00 0.00 0.00 67 782.5
20260506040114 62 183 2.0 12.0 0.00 0.00 0.00 67 777.6
20260506035613 62 213 2.0 11.0 0.00 0.00 0.00 67 816.4
20260506035112 62 235 3.0 11.0 0.00 0.00 0.00 67 798.4
20260506034055 62 225 2.0 15.0 0.00 0.00 0.00 67 793.4
20260506033554 62 175 2.0 12.0 0.00 0.00 0.00 67 770.7
20260506033053 62 204 3.0 12.0 0.00 0.00 0.00 67 785.0
20260506032552 62 216 2.0 12.0 0.00 0.00 0.00 67 785.9
20260506032051 62 205 2.0 12.0 0.00 0.00 0.00 67 765.9
20260506031551 62 202 1.0 12.0 0.00 0.00 0.00 67 764.8
20260506031050 62 193 3.0 12.0 0.00 0.00 0.00 67 782.3
20260506030033 61 235 3.0 13.0 0.00 0.00 0.00 67 817.8
20260506025533 61 195 2.0 12.0 0.00 0.00 0.00 67 773.5
20260506025031 61 218 2.0 12.0 0.00 0.00 0.00 67 798.3
20260506024530 61 213 3.0 12.0 0.00 0.00 0.00 67 806.3
20260506024029 61 201 2.0 12.0 0.00 0.00 0.00 67 811.3
20260506023528 61 240 1.0 12.0 0.00 0.00 0.00 67 811.6
20260506023027 61 235 2.0 12.0 0.00 0.00 0.00 67 800.1
20260506022011 61 194 1.0 12.0 0.00 0.00 0.00 66 756.4
20260506021510 62 182 1.0 12.0 0.00 0.00 0.00 66 714.2
20260506021010 62 162 2.0 12.0 0.00 0.00 0.00 66 726.1
20260506015954 62 187 1.0 12.0 0.00 0.00 0.00 65 748.1
20260506014938 62 218 1.0 11.0 0.00 0.00 0.00 65 820.9
20260506013921 62 216 3.0 11.0 0.00 0.00 0.00 64 800.9
20260506013420 62 206 2.0 11.0 0.00 0.00 0.00 63 820.3
20260506012403 63 257 1.0 11.0 0.00 0.00 0.00 62 863.6
20260506011901 63 220 2.0 11.0 0.00 0.00 0.00 62 839.7
20260506011401 63 230 4.0 15.0 0.00 0.00 0.00 62 851.6
20260506010859 63 220 3.0 15.0 0.00 0.00 0.00 61 805.3
20260506010359 64 219 3.0 15.0 0.00 0.00 0.00 61 801.5
20260506005858 64 232 3.0 15.0 0.00 0.00 0.00 61 803.9
20260506005357 64 182 1.0 15.0 0.00 0.00 0.00 61 778.5
20260506004857 64 225 3.0 15.0 0.00 0.00 0.00 61 817.6
20260506004356 64 242 3.0 15.0 0.00 0.00 0.00 60 837.7
20260506003340 64 237 3.0 15.0 0.00 0.00 0.00 60 823.4
20260506002323 65 227 2.0 15.0 0.00 0.00 0.00 60 807.3
20260506001307 65 198 2.0 15.0 0.00 0.00 0.00 59 784.7
20260506000806 66 212 2.0 15.0 0.00 0.00 0.00 59 785.5
20260506000305 66 209 2.0 15.0 0.00 0.00 0.00 58 778.9
20260505235804 66 210 2.0 15.0 0.00 0.00 0.00 57 784.8
20260505234748 67 209 2.0 15.0 0.00 0.00 0.00 56 785.1
20260505234247 67 223 3.0 15.0 0.00 0.00 0.00 56 792.0
20260505233746 67 206 3.0 15.0 0.00 0.00 0.00 55 780.2
20260505233245 68 220 2.0 15.0 0.00 0.00 0.00 55 808.5
20260505232744 68 188 3.0 12.0 0.00 0.00 0.00 54 796.0
20260505232243 68 212 2.0 12.0 0.00 0.00 0.00 53 806.1
20260505231742 69 251 3.0 12.0 0.00 0.00 0.00 53 834.3
20260505231241 69 229 3.0 12.0 0.00 0.00 0.00 52 825.6
20260505230740 69 187 3.0 12.0 0.00 0.00 0.00 52 794.0
20260505230239 69 220 2.0 12.0 0.00 0.00 0.00 51 808.1
20260505225222 70 201 3.0 13.0 0.00 0.00 0.00 50 766.2
20260505224721 70 212 2.0 14.0 0.00 0.00 0.00 51 785.0
20260505224220 70 235 2.0 14.0 0.00 0.00 0.00 50 817.3
20260505223719 71 206 3.0 11.0 0.00 0.00 0.00 49 809.9
20260505223218 71 213 2.0 11.0 0.00 0.00 0.00 49 810.6
20260505222717 71 229 2.0 11.0 0.00 0.00 0.00 48 805.2
20260505222216 72 204 4.0 13.0 0.00 0.00 0.00 48 775.2
20260505221159 72 233 2.0 11.0 0.00 0.00 0.00 47 793.3
20260505220658 73 202 3.0 14.0 0.00 0.00 0.00 46 788.8
20260505220157 73 234 4.0 14.0 0.00 0.00 0.00 46 838.3
20260505215140 73 231 2.0 12.0 0.00 0.00 0.00 47 809.0
20260505214123 73 224 3.0 19.0 0.00 0.00 0.00 46 772.4
20260505213108 74 225 3.0 11.0 0.00 0.00 0.00 46 773.6
20260505212607 74 221 3.0 12.0 0.00 0.00 0.00 45 764.8
20260505212106 75 188 2.0 12.0 0.00 0.00 0.00 45 763.3
20260505211605 75 192 4.0 13.0 0.00 0.00 0.00 45 781.4
20260505211104 75 231 4.0 13.0 0.00 0.00 0.00 44 800.8
20260505210603 76 224 3.0 11.0 0.00 0.00 0.00 43 788.9
20260505205030 77 222 3.0 13.0 0.00 0.00 0.00 42 743.9
20260505204529 77 165 1.0 11.0 0.00 0.00 0.00 43 725.5
20260505204028 77 220 3.0 13.0 0.00 0.00 0.00 42 799.2
20260505203527 77 204 4.0 13.0 0.00 0.00 0.00 43 790.5
20260505203026 77 196 4.0 18.0 0.00 0.00 0.00 42 790.2
20260505202525 77 241 4.0 18.0 0.00 0.00 0.00 41 827.8
20260505201510 78 213 3.0 15.0 0.00 0.00 0.00 40 790.3
20260505200454 78 234 4.0 16.0 0.00 0.00 0.00 40 790.7
20260505195953 78 195 3.0 16.0 0.00 0.00 0.00 39 752.5
20260505195452 79 218 6.0 16.0 0.00 0.00 0.00 39 784.1
20260505194951 79 202 6.0 16.0 0.00 0.00 0.00 38 765.7
20260505194450 79 181 2.0 16.0 0.00 0.00 0.00 39 776.1
20260505193949 80 213 3.0 14.0 0.00 0.00 0.00 38 808.8
20260505193448 80 265 2.0 14.0 0.00 0.00 0.00 37 828.5
20260505192947 80 200 4.0 20.0 0.00 0.00 0.00 35 763.8
20260505192446 80 212 2.0 20.0 0.00 0.00 0.00 35 766.5
20260505191945 80 196 5.0 14.0 0.00 0.00 0.00 35 780.3
20260505191444 80 221 4.0 13.0 0.00 0.00 0.00 36 744.3
20260505190428 80 66 1.0 24.0 0.00 0.00 0.00 36 707.5
20260505185411 81 214 7.0 14.0 0.00 0.00 0.00 34 787.1
20260505184911 81 232 3.0 12.0 0.00 0.00 0.00 35 796.9
20260505184410 81 186 2.0 12.0 0.00 0.00 0.00 38 735.6
20260505183909 81 188 1.0 12.0 0.00 0.00 0.00 38 744.5
20260505183408 80 213 2.0 13.0 0.00 0.00 0.00 38 736.6
20260505181845 80 211 2.0 12.0 0.00 0.00 0.00 37 766.8
20260505181344 80 209 5.0 13.0 0.00 0.00 0.00 37 741.4
20260505180843 80 187 4.0 13.0 0.00 0.00 0.00 38 715.7
20260505180342 79 227 3.0 15.0 0.00 0.00 0.00 38 770.3
20260505175841 80 208 6.0 16.0 0.00 0.00 0.00 37 776.6
20260505174824 80 251 2.0 12.0 0.00 0.00 0.00 39 780.4
20260505174323 79 204 4.0 12.0 0.00 0.00 0.00 40 743.6
20260505173822 79 181 2.0 14.0 0.00 0.00 0.00 41 727.8
20260505173321 79 210 3.0 14.0 0.00 0.00 0.00 42 770.2
20260505172820 79 221 4.0 12.0 0.00 0.00 0.00 40 768.9